User: anonymous   Login
Location: Newark
(56.0692°N, 115.8617°E)
Time: 22:20:23
(UTC+00:00)
Language:

Tiros 1 despin weight - Orbit

View from above orbital plane
View from above orbital plane
View from above satellite
View from above satellite

Ground track
Ground track

The orbit data is extracted from the following two-line orbital elements,

1   115U 60002D   20145.95304447 -.00000077 +00000-0 +18010-4 0  9992
2   115 048.1679 027.2342 0034276 145.7011 214.6124 14.83576729209480
Epoch (UTC): 24 May 2020 22:52:23
Eccentricity: 0.0034276
inclination: 48.1679°
perigee height: 594 km
apogee height: 642 km
right ascension of ascending node: 27.2342°
argument of perigee: 145.7011°
revolutions per day: 14.83576729
mean anomaly at epoch: 214.6124°
orbit number at epoch: 20948

The dashed part of the orbit path shows where the satellite is in the earth's shadow,  

DLR